Satellite: MAST
Catalog number: 31126
Epoch time:      08009.24695377
Element set:    0228
Inclination:      098.0616 deg
RA of node:       079.9217 deg
Eccentricity:    0.0095857
Arg of perigee:   107.5825 deg
Mean anomaly:     253.5891 deg
Mean motion:   14.53391948 rev/day
Decay rate:       3.41e-06 rev/day^2
Epoch rev:           03878
Checksum:              335

Satellite: CAPE1
Catalog number: 31130
Epoch time:      08009.93240846
Element set:    0214
Inclination:      098.0599 deg
RA of node:       079.9539 deg
Eccentricity:    0.0103572
Arg of perigee:   106.9963 deg
Mean anomaly:     254.2588 deg
Mean motion:   14.51919809 rev/day
Decay rate:       -3.4e-07 rev/day^2
Epoch rev:           03861
Checksum:              320

/EX



_______________________________________________
Via the Keps mailing list courtesy of AMSAT-NA
http://amsat.org/mailman/listinfo/keps

--- ViaMAIL!/WC v1.60d
 * Origin: Chowdanet (401-724-4410) telnet://chowdanet.com  (1:323/120)